TimeEET,TemperatureF,Dew PointF,Humidity,Sea Level PressureIn,VisibilityMPH,Wind Direction,Wind SpeedMPH,Gust SpeedMPH,PrecipitationIn,Events,Conditions,WindDirDegrees,DateUTC
12:20 AM,41.0,33.8,76,30.09,6.2,NNW,6.9,-,N/A,,Partly Cloudy,330,2013-03-16 22:20:00
12:50 AM,42.8,33.8,70,30.09,6.2,NNW,6.9,-,N/A,,Partly Cloudy,340,2013-03-16 22:50:00
1:20 AM,44.6,33.8,66,30.09,6.2,NW,4.6,-,N/A,,Partly Cloudy,320,2013-03-16 23:20:00
1:50 AM,42.8,33.8,70,30.09,6.2,West,3.5,-,N/A,,Partly Cloudy,260,2013-03-16 23:50:00
2:00 AM,42,34,66,30.11,6,West,3.5,,,,Partly Cloudy,260,2013-03-17 00:00:00
2:20 AM,41.0,33.8,76,30.09,6.2,Calm,Calm,-,N/A,,Scattered Clouds,0,2013-03-17 00:20:00
2:50 AM,39.2,35.6,87,30.12,6.2,Calm,Calm,-,N/A,,Scattered Clouds,0,2013-03-17 00:50:00
3:20 AM,39.2,35.6,87,30.12,6.2,Calm,Calm,-,N/A,,Scattered Clouds,0,2013-03-17 01:20:00
3:50 AM,39.2,35.6,87,30.09,6.2,Calm,Calm,-,N/A,,Scattered Clouds,0,2013-03-17 01:50:00
4:20 AM,39.2,35.6,87,30.09,6.2,Calm,Calm,-,N/A,,Scattered Clouds,0,2013-03-17 02:20:00
4:50 AM,39.2,35.6,87,30.09,6.2,Calm,Calm,-,N/A,,Scattered Clouds,0,2013-03-17 02:50:00
5:20 AM,39.2,35.6,87,30.09,6.2,Calm,Calm,-,N/A,,Scattered Clouds,0,2013-03-17 03:20:00
5:50 AM,37.4,35.6,93,30.09,6.2,Calm,Calm,-,N/A,,Scattered Clouds,0,2013-03-17 03:50:00
6:20 AM,35.6,35.6,100,30.09,6.2,Calm,Calm,-,N/A,,Scattered Clouds,0,2013-03-17 04:20:00
6:50 AM,35.6,33.8,93,30.12,6.2,Calm,Calm,-,N/A,,Scattered Clouds,0,2013-03-17 04:50:00
7:20 AM,35.6,33.8,93,30.12,6.2,Calm,Calm,-,N/A,,Scattered Clouds,0,2013-03-17 05:20:00
7:50 AM,35.6,32.0,87,30.12,6.2,Calm,Calm,-,N/A,,Scattered Clouds,0,2013-03-17 05:50:00
8:00 AM,36,33,83,30.14,12,Calm,Calm,,,,Scattered Clouds,,2013-03-17 06:00:00
8:20 AM,41.0,35.6,81,30.12,6.2,Calm,Calm,-,N/A,,Scattered Clouds,0,2013-03-17 06:20:00
8:50 AM,42.8,35.6,76,30.12,6.2,Calm,Calm,-,N/A,,Scattered Clouds,0,2013-03-17 06:50:00
9:20 AM,46.4,39.2,76,30.12,6.2,Calm,Calm,-,N/A,,Scattered Clouds,0,2013-03-17 07:20:00
9:50 AM,48.2,35.6,62,30.15,6.2,Calm,Calm,-,N/A,,Scattered Clouds,0,2013-03-17 07:50:00
10:20 AM,50.0,37.4,62,30.15,6.2,Calm,Calm,-,N/A,,Scattered Clouds,0,2013-03-17 08:20:00
10:50 AM,50.0,39.2,66,30.15,6.2,Calm,Calm,-,N/A,,Scattered Clouds,0,2013-03-17 08:50:00
11:20 AM,51.8,39.2,62,30.15,6.2,Calm,Calm,-,N/A,,Scattered Clouds,0,2013-03-17 09:20:00
11:50 AM,51.8,39.2,62,30.15,6.2,Calm,Calm,-,N/A,,Scattered Clouds,0,2013-03-17 09:50:00
12:20 PM,51.8,39.2,62,30.15,6.2,East,4.6,-,N/A,,Scattered Clouds,80,2013-03-17 10:20:00
12:50 PM,51.8,41.0,67,30.15,6.2,ENE,4.6,-,N/A,,Scattered Clouds,70,2013-03-17 10:50:00
1:20 PM,53.6,41.0,62,30.15,6.2,ENE,4.6,-,N/A,,Scattered Clouds,70,2013-03-17 11:20:00
1:50 PM,53.6,39.2,58,30.15,6.2,SSE,5.8,-,N/A,,Scattered Clouds,160,2013-03-17 11:50:00
2:00 PM,53,39,47,30.15,12,SSE,5.8,,,,Partly Cloudy,160,2013-03-17 12:00:00
2:20 PM,53.6,39.2,58,30.15,6.2,South,9.2,-,N/A,,Scattered Clouds,170,2013-03-17 12:20:00
2:50 PM,55.4,39.2,54,30.12,6.2,SSE,8.1,-,N/A,,Scattered Clouds,160,2013-03-17 12:50:00
3:20 PM,55.4,39.2,54,30.12,6.2,SSE,8.1,-,N/A,,Scattered Clouds,160,2013-03-17 13:20:00
3:50 PM,57.2,39.2,51,30.12,6.2,South,8.1,-,N/A,,Scattered Clouds,170,2013-03-17 13:50:00
4:20 PM,57.2,39.2,51,30.12,6.2,South,8.1,-,N/A,,Scattered Clouds,170,2013-03-17 14:20:00
4:50 PM,57.2,39.2,51,30.12,6.2,South,4.6,-,N/A,,Mostly Cloudy,180,2013-03-17 14:50:00
5:20 PM,57.2,39.2,51,30.12,6.2,WNW,4.6,-,N/A,,Mostly Cloudy,290,2013-03-17 15:20:00
5:50 PM,57.2,39.2,51,30.12,6.2,WNW,4.6,-,N/A,,Mostly Cloudy,290,2013-03-17 15:50:00
6:20 PM,55.4,41.0,58,30.12,6.2,West,4.6,-,N/A,,Mostly Cloudy,270,2013-03-17 16:20:00
6:50 PM,55.4,39.2,54,30.12,6.2,SW,3.5,-,N/A,,Mostly Cloudy,220,2013-03-17 16:50:00
7:20 PM,53.6,39.2,58,30.12,6.2,SW,3.5,-,N/A,,Mostly Cloudy,220,2013-03-17 17:20:00
7:50 PM,50.0,44.6,82,30.12,6.2,WSW,3.5,-,N/A,,Mostly Cloudy,240,2013-03-17 17:50:00
8:00 PM,50,44,73,30.14,6,WSW,3.5,,,,Partly Cloudy,240,2013-03-17 18:00:00
8:20 PM,50.0,44.6,82,30.12,6.2,WSW,3.5,-,N/A,,Mostly Cloudy,240,2013-03-17 18:20:00
8:50 PM,48.2,44.6,87,30.12,6.2,Calm,Calm,-,N/A,,Mostly Cloudy,0,2013-03-17 18:50:00
9:20 PM,48.2,44.6,87,30.12,6.2,Calm,Calm,-,N/A,,Mostly Cloudy,0,2013-03-17 19:20:00
9:50 PM,50.0,42.8,76,30.12,6.2,SSE,10.4,-,N/A,,Mostly Cloudy,150,2013-03-17 19:50:00
10:20 PM,50.0,42.8,76,30.12,6.2,SSE,10.4,-,N/A,,Mostly Cloudy,150,2013-03-17 20:20:00
10:50 PM,50.0,42.8,76,30.12,6.2,SE,5.8,-,N/A,,Mostly Cloudy,130,2013-03-17 20:50:00
11:20 PM,50.0,42.8,76,30.12,6.2,SE,5.8,-,N/A,,Mostly Cloudy,130,2013-03-17 21:20:00
11:50 PM,50.0,44.6,82,30.12,6.2,SE,4.6,-,N/A,,Mostly Cloudy,130,2013-03-17 21:50:00